#timestamp,LO_Frequency,Hit,StdDev 
1584326115.8,286047018.7,P
1584326135.7,286047018.4,P
1584326155.5,286047018.8,P
1584326175.4,286047020.3,Y
1584326195.2,286047002.3,P
1584326215.0,286047004.1,N
1584326215.9,286047004.1,N
1584326235.8,286047005.6,N
1584326255.6,286047007.6,N
1584326275.4,286047005.2,N
1584326295.3,286047003.2,N
1584326315.1,286047002.1,N
1584326335.9,286047001.7,N
1584326355.7,286047002.7,N
1584326375.5,286047002.4,N
1584326395.4,286047004.3,N
1584326415.2,286047003.2,N
1584326435.1,286047004.1,N
1584326436.0,286047004.1,N
1584326455.8,286047002.9,N
1584326475.6,286047005.6,N
1584326495.5,286047006.4,N
1584326515.3,286047012.0,Y
1584326535.2,286047010.5,P
1584326555.9,286047008.8,P
1584326575.7,286047006.4,N
1584326595.6,286047006.6,N
1584326615.4,286047007.6,Y
1584326635.2,286046996.6,P
1584326655.1,286046997.7,N
1584326656.0,286046997.7,N
1584326675.8,286046996.9,N
1584326695.7,286046996.6,N
1584326715.5,286046997.1,N
1584326735.3,286046997.0,N
1584326755.2,286046997.3,N
1584326775.0,286046997.4,N
1584326775.9,286046997.4,N
1584326795.7,286046996.6,N
1584326815.6,286046997.2,N
1584326835.4,286046998.0,N
1584326855.3,286046995.0,N
1584326875.1,286046997.8,N
1584326876.0,286046997.8,N
1584326895.8,286046997.1,N
1584326915.7,286046997.8,N
1584326935.5,286046996.6,N
1584326955.3,286046997.3,N
1584326975.2,286046997.7,N
1584326995.0,286046996.7,N
1584326995.9,286046996.7,N
1584327015.8,286046998.9,N
1584327035.6,286046999.0,N
1584327055.4,286046998.3,N
1584327075.3,286046998.2,N
1584327095.1,286047000.8,N
1584327115.8,286047000.2,N
1584327135.7,286047001.9,N
1584327155.5,286047001.8,N
1584327175.4,286047002.1,N
1584327195.2,286047003.7,N
1584327215.0,286047004.4,N
1584327215.9,286047004.4,N
1584327235.8,286047004.1,N
1584327255.6,286047003.2,N
1584327275.4,286047004.0,N
1584327295.3,286047004.0,N
1584327315.1,286047003.6,N
1584327335.9,286047005.9,N
1584327355.7,286047006.0,N
1584327375.5,286047003.8,N
1584327395.4,286047003.8,N
1584327415.2,286047004.2,N
1584327435.0,286047003.8,N
1584327435.9,286047003.8,N
1584327455.8,286047003.5,N
1584327475.6,286047005.2,N
1584327495.5,286047005.2,N
1584327515.3,286047006.0,N
1584327535.1,286047005.0,N
1584327555.9,286047004.5,N
1584327575.7,286047007.3,Y
1584327595.5,286047003.4,P
